EDT,Max TemperatureF,Mean TemperatureF,Min TemperatureF,Max Dew PointF,MeanDew PointF,Min DewpointF,Max Humidity, Mean Humidity, Min Humidity, Max Sea Level PressureIn, Mean Sea Level PressureIn, Min Sea Level PressureIn, Max VisibilityMiles, Mean VisibilityMiles, Min VisibilityMiles, Max Wind SpeedMPH, Mean Wind SpeedMPH, Max Gust SpeedMPH,PrecipitationIn, CloudCover, Events, WindDirDegrees
2013-9-1,86,76,66,75,69,64,100,83,66,29.99,29.83,29.78,10,10,2,22,11,33,1.11,2,Thunderstorm,215
2013-9-2,87,76,66,73,68,64,100,80,54,29.92,29.87,29.84,10,8,0,14,4,20,0.00,3,,273
2013-9-3,78,69,60,64,60,55,88,71,47,30.08,30.01,29.91,10,10,9,12,6,16,0.11,1,,6
2013-9-4,80,68,55,61,58,54,100,75,45,30.17,30.13,30.08,10,10,3,8,1,,0.00,0,,328
2013-9-5,84,70,57,66,61,55,100,76,48,30.23,30.18,30.15,10,8,1,7,1,,0.00,0,,353
2013-9-6,87,74,62,66,64,61,94,75,46,30.21,30.15,30.09,10,8,0,7,1,,0.00,1,,140
2013-9-7,84,73,62,68,65,59,94,76,55,30.10,30.05,29.98,10,8,2,12,3,,0.00,0,,202
2013-9-8,78,72,66,72,68,64,94,83,69,30.02,29.98,29.95,10,8,2,6,3,,0.00,0,,174
2013-9-9,91,78,66,73,69,64,94,75,52,30.04,30.00,29.97,10,9,2,12,5,,0.00,0,,175
2013-9-10,89,81,73,75,71,66,94,76,46,30.15,30.10,30.04,10,8,3,15,6,16,0.00,0,Thunderstorm,183
2013-9-11,91,80,69,73,70,66,94,76,52,30.19,30.13,30.07,10,9,4,8,6,,0.00,0,,192
2013-9-12,80,74,68,72,67,59,94,78,58,30.07,30.01,29.95,10,8,4,13,6,18,0.03,1,,261
2013-9-13,69,61,51,57,50,46,88,65,43,30.11,30.06,29.99,10,10,7,16,7,24,0.00,1,,9
2013-9-14,73,60,46,48,46,43,93,67,36,30.19,30.12,30.09,10,10,2,10,5,17,0.00,0,,64
2013-9-15,78,62,46,57,51,43,93,68,42,30.14,30.09,30.04,10,10,5,13,3,,0.00,0,,197
2013-9-16,75,67,59,61,58,55,88,73,57,30.25,30.17,30.08,10,10,8,15,6,20,0.01,5,,42
2013-9-17,75,64,53,55,54,50,94,70,50,30.27,30.21,30.14,10,10,5,12,7,,0.00,0,,79
2013-9-18,78,68,59,70,62,54,94,83,74,30.18,30.11,30.06,10,8,4,9,3,,0.06,2,,160
2013-9-19,84,75,66,72,68,64,94,81,62,30.10,30.05,29.97,10,8,3,14,6,,0.00,1,Thunderstorm,175
2013-9-20,78,72,66,70,67,64,100,87,69,30.00,29.93,29.85,10,8,2,16,6,22,0.90,3,,215
2013-9-21,71,63,53,64,54,48,94,74,43,29.91,29.86,29.81,10,10,5,15,7,21,0.22,3,,331
2013-9-22,71,58,46,52,49,45,94,71,43,30.02,29.97,29.91,10,10,2,9,3,,0.00,0,,40
2013-9-23,73,60,48,54,49,45,88,69,44,30.08,30.02,29.99,10,10,10,12,6,,0.00,0,,73
2013-9-24,78,66,53,63,56,48,88,72,54,30.02,29.95,29.87,10,10,5,13,5,16,0.00,2,,118
2013-9-25,78,70,60,66,61,57,94,78,57,29.91,29.87,29.84,10,9,3,12,4,16,0.05,1,,85
2013-9-26,80,68,55,59,54,48,94,70,36,30.06,30.00,29.91,10,8,3,9,3,,0.00,0,,42
2013-9-27,80,66,51,61,53,48,94,68,39,30.17,30.11,30.07,10,8,3,12,3,16,0.00,0,,94
2013-9-28,80,68,57,61,55,52,88,66,42,30.16,30.10,30.06,10,10,8,16,6,21,0.00,1,,166
2013-9-29,64,62,60,61,57,54,94,83,68,30.08,30.05,30.02,10,8,2,14,6,18,0.41,7,,183
2013-9-30,73,68,64,64,62,61,88,78,69,30.03,29.99,29.96,10,10,10,12,6,,0.00,5,,216